TimeHST,TemperatureF,Dew PointF,Humidity,Sea Level PressureIn,VisibilityMPH,Wind Direction,Wind SpeedMPH,Gust SpeedMPH,PrecipitationIn,Events,Conditions,WindDirDegrees,DateUTC
12:54 AM,64.0,57.9,80,30.08,10.0,NE,5.8,-,N/A,,Clear,50,2013-04-03 10:54:00
1:54 AM,61.0,57.9,90,30.07,10.0,Calm,Calm,-,N/A,,Mostly Cloudy,0,2013-04-03 11:54:00
2:54 AM,64.0,59.0,84,30.05,10.0,Calm,Calm,-,N/A,,Mostly Cloudy,0,2013-04-03 12:54:00
3:54 AM,66.0,59.0,78,30.05,10.0,Calm,Calm,-,N/A,,Overcast,0,2013-04-03 13:54:00
4:54 AM,64.9,59.0,81,30.04,10.0,NE,3.5,-,N/A,,Partly Cloudy,40,2013-04-03 14:54:00
5:54 AM,64.9,59.0,81,30.06,10.0,NNE,4.6,-,N/A,,Partly Cloudy,20,2013-04-03 15:54:00
6:54 AM,66.9,60.1,79,30.07,10.0,NNE,4.6,-,N/A,,Partly Cloudy,20,2013-04-03 16:54:00
7:54 AM,70.0,61.0,73,30.09,10.0,NE,9.2,-,N/A,,Scattered Clouds,50,2013-04-03 17:54:00
8:54 AM,73.9,61.0,64,30.11,10.0,NE,11.5,-,N/A,,Scattered Clouds,50,2013-04-03 18:54:00
9:54 AM,77.0,61.0,58,30.11,10.0,NNE,16.1,-,N/A,,Partly Cloudy,30,2013-04-03 19:54:00
10:54 AM,79.0,62.1,56,30.09,10.0,NNE,18.4,-,N/A,,Scattered Clouds,30,2013-04-03 20:54:00
11:54 AM,79.0,61.0,54,30.09,10.0,NE,20.7,26.5,N/A,,Scattered Clouds,50,2013-04-03 21:54:00
12:54 PM,80.1,62.1,54,30.07,10.0,NE,16.1,23.0,N/A,,Scattered Clouds,40,2013-04-03 22:54:00
1:54 PM,80.1,62.1,54,30.05,10.0,NE,15.0,24.2,N/A,,Scattered Clouds,50,2013-04-03 23:54:00
2:54 PM,78.1,63.0,60,30.03,10.0,NE,17.3,24.2,N/A,,Scattered Clouds,50,2013-04-04 00:54:00
3:54 PM,78.1,63.0,60,30.02,10.0,NE,15.0,-,N/A,,Partly Cloudy,40,2013-04-04 01:54:00
4:54 PM,77.0,63.0,62,30.03,10.0,NE,13.8,-,N/A,,Scattered Clouds,50,2013-04-04 02:54:00
5:54 PM,73.0,62.1,68,30.04,10.0,NE,15.0,-,N/A,,Partly Cloudy,40,2013-04-04 03:54:00
6:54 PM,71.1,62.1,73,30.06,10.0,NE,9.2,-,N/A,,Scattered Clouds,50,2013-04-04 04:54:00
7:54 PM,66.9,63.0,87,30.08,10.0,East,5.8,-,N/A,,Scattered Clouds,80,2013-04-04 05:54:00
8:54 PM,66.9,63.0,87,30.10,10.0,East,4.6,-,N/A,,Partly Cloudy,90,2013-04-04 06:54:00
9:54 PM,64.9,62.1,90,30.12,10.0,Calm,Calm,-,N/A,,Scattered Clouds,0,2013-04-04 07:54:00
10:54 PM,64.9,62.1,90,30.11,10.0,Calm,Calm,-,N/A,,Scattered Clouds,0,2013-04-04 08:54:00
11:54 PM,62.1,60.1,93,30.10,10.0,SE,4.6,-,N/A,,Clear,140,2013-04-04 09:54:00